TimeCET,TemperatureF,Dew PointF,Humidity,Sea Level PressureIn,VisibilityMPH,Wind Direction,Wind SpeedMPH,Gust SpeedMPH,PrecipitationIn,Events,Conditions,WindDirDegrees,DateUTC
12:00 AM,57.2,50.0,77,30.12,6.2,SSW,16.1,-,N/A,,Partly Cloudy,210,2012-12-31 23:00:00
12:30 AM,57.2,50.0,77,30.12,6.2,SSW,13.8,-,N/A,,Scattered Clouds,210,2012-12-31 23:30:00
1:00 AM,56,47,65,30.11,14,SW,17.3,,,,Partly Cloudy,230,2013-01-01 00:00:00
1:00 AM,57.2,51.8,82,30.09,6.2,SW,15.0,-,N/A,,Scattered Clouds,220,2013-01-01 00:00:00
1:30 AM,57.2,50.0,77,30.09,6.2,WSW,15.0,-,N/A,,Scattered Clouds,240,2013-01-01 00:30:00
2:00 AM,55.4,50.0,82,30.06,6.2,WSW,13.8,-,N/A,,Scattered Clouds,240,2013-01-01 01:00:00
2:30 AM,55.4,48.2,77,30.06,6.2,SW,13.8,-,N/A,,Partly Cloudy,230,2013-01-01 01:30:00
3:00 AM,55.4,48.2,77,30.06,6.2,SW,10.4,-,N/A,,Partly Cloudy,230,2013-01-01 02:00:00
3:30 AM,55.4,48.2,77,30.04,6.2,SW,13.8,-,N/A,,Partly Cloudy,230,2013-01-01 02:30:00
4:00 AM,55.4,48.2,77,30.04,6.2,SW,12.7,-,N/A,,Partly Cloudy,230,2013-01-01 03:00:00
4:30 AM,57.2,50.0,77,30.04,6.2,SW,13.8,-,N/A,,Scattered Clouds,230,2013-01-01 03:30:00
5:00 AM,57.2,50.0,77,30.04,6.2,SW,15.0,-,N/A,,Scattered Clouds,230,2013-01-01 04:00:00
5:30 AM,57.2,48.2,72,30.01,6.2,WSW,13.8,-,N/A,,Scattered Clouds,240,2013-01-01 04:30:00
6:00 AM,57.2,48.2,72,30.01,6.2,WSW,13.8,-,N/A,,Partly Cloudy,240,2013-01-01 05:00:00
6:30 AM,57.2,48.2,72,30.01,6.2,WSW,15.0,-,N/A,,Partly Cloudy,240,2013-01-01 05:30:00
7:00 AM,54,43,58,30.03,14,WSW,16.1,,,,Partly Cloudy,250,2013-01-01 06:00:00
7:00 AM,55.4,46.4,72,30.01,6.2,WSW,16.1,-,N/A,,Partly Cloudy,250,2013-01-01 06:00:00
7:30 AM,55.4,46.4,72,30.01,6.2,WSW,13.8,-,N/A,,Scattered Clouds,250,2013-01-01 06:30:00
8:00 AM,55.4,48.2,77,30.04,6.2,WSW,13.8,-,N/A,,Scattered Clouds,250,2013-01-01 07:00:00
8:30 AM,55.4,48.2,77,30.04,6.2,WSW,12.7,-,N/A,,Scattered Clouds,250,2013-01-01 07:30:00
9:00 AM,55.4,46.4,72,30.04,6.2,WSW,11.5,-,N/A,,Scattered Clouds,250,2013-01-01 08:00:00
9:30 AM,55.4,44.6,67,30.04,6.2,West,10.4,-,N/A,,Partly Cloudy,270,2013-01-01 08:30:00
10:00 AM,57.2,46.4,67,30.04,6.2,West,6.9,-,N/A,,Partly Cloudy,280,2013-01-01 09:00:00
10:30 AM,57.2,46.4,67,30.06,6.2,West,10.4,-,N/A,,Partly Cloudy,260,2013-01-01 09:30:00
11:00 AM,57.2,46.4,67,30.06,6.2,West,11.5,-,N/A,,Partly Cloudy,260,2013-01-01 10:00:00
11:30 AM,59.0,46.4,63,30.06,6.2,West,11.5,-,N/A,,Partly Cloudy,260,2013-01-01 10:30:00
12:00 PM,57.2,46.4,67,30.06,6.2,West,11.5,-,N/A,,Partly Cloudy,270,2013-01-01 11:00:00
12:30 PM,57.2,48.2,72,30.04,6.2,West,9.2,-,N/A,,Scattered Clouds,260,2013-01-01 11:30:00
1:00 PM,57,44,52,30.05,16,WSW,9.2,,,,Overcast,250,2013-01-01 12:00:00
1:00 PM,57.2,48.2,72,30.04,6.2,WSW,8.1,-,N/A,,Scattered Clouds,250,2013-01-01 12:00:00
1:30 PM,59.0,48.2,67,30.04,6.2,WSW,6.9,-,N/A,,Scattered Clouds,240,2013-01-01 12:30:00
2:00 PM,59.0,48.2,67,30.04,6.2,SW,6.9,-,N/A,,Scattered Clouds,230,2013-01-01 13:00:00
2:30 PM,59.0,48.2,67,30.01,6.2,SW,5.8,-,N/A,,Scattered Clouds,230,2013-01-01 13:30:00
3:00 PM,60.8,44.6,55,30.01,6.2,NW,3.5,-,N/A,,Scattered Clouds,310,2013-01-01 14:00:00
3:30 PM,59.0,44.6,59,30.01,6.2,NW,3.5,-,N/A,,Scattered Clouds,310,2013-01-01 14:30:00
4:00 PM,59.0,44.6,59,30.01,6.2,NW,6.9,-,N/A,,Scattered Clouds,310,2013-01-01 15:00:00
4:30 PM,59.0,44.6,59,30.04,6.2,NW,10.4,-,N/A,,Scattered Clouds,310,2013-01-01 15:30:00
5:00 PM,57.2,46.4,67,30.04,6.2,NW,11.5,-,N/A,,Scattered Clouds,320,2013-01-01 16:00:00
5:30 PM,55.4,44.6,67,30.04,6.2,NW,6.9,-,N/A,,Scattered Clouds,310,2013-01-01 16:30:00
6:00 PM,55.4,44.6,67,30.06,6.2,WNW,3.5,-,N/A,,Mostly Cloudy,300,2013-01-01 17:00:00
6:30 PM,55.4,44.6,67,30.06,6.2,Variable,1.2,-,N/A,,Mostly Cloudy,0,2013-01-01 17:30:00
7:00 PM,54,42,54,30.09,12,Calm,Calm,,,,Mostly Cloudy,,2013-01-01 18:00:00
7:00 PM,55.4,44.6,67,30.06,6.2,Calm,Calm,-,N/A,,Mostly Cloudy,0,2013-01-01 18:00:00
7:30 PM,55.4,44.6,67,30.06,6.2,Calm,Calm,-,N/A,,Mostly Cloudy,0,2013-01-01 18:30:00
8:00 PM,55.4,46.4,72,30.09,6.2,Calm,Calm,-,N/A,,Mostly Cloudy,0,2013-01-01 19:00:00
9:00 PM,55.4,46.4,72,30.09,6.2,Variable,2.3,-,N/A,,Mostly Cloudy,0,2013-01-01 20:00:00
9:30 PM,53.6,46.4,77,30.09,6.2,NW,3.5,-,N/A,,Mostly Cloudy,310,2013-01-01 20:30:00
10:00 PM,55.4,44.6,67,30.09,6.2,NW,9.2,-,N/A,,Scattered Clouds,320,2013-01-01 21:00:00
10:30 PM,53.6,44.6,72,30.09,6.2,NW,5.8,-,N/A,,Scattered Clouds,320,2013-01-01 21:30:00
11:00 PM,51.8,44.6,76,30.09,6.2,NW,3.5,-,N/A,,Scattered Clouds,310,2013-01-01 22:00:00
11:30 PM,50.0,42.8,76,30.09,6.2,North,3.5,-,N/A,,Partly Cloudy,350,2013-01-01 22:30:00